Other Public Products
Issued by NWS Grand Forks, ND

Home | Current Version | Previous Version | Text Only | Print | Product List | Glossary On
Versions: 1 2 3 4 5 6 7 8 9 10 11 12 13 14 15 16 17 18 19 20 21 22 23 24 25 26 27 28 29 30 31 32 33 34 35 36 37 38 39 40 41 42 43 44 45 46 47 48 49 50
000
FPUS83 KFGF 301331
OPUFGF
PRAIRIE TO PINES WEATHER ROUNDUP
NATIONAL WEATHER SERVICE EASTERN NORTH DAKOTA/GRAND FORKS ND
800 AM CDT TUE JUN 30 2015

 **SATELLITE DATA USED TO AUGMENT SKY COVER AT AUTOMATED STATIONS**
 *****  WEATHER ACROSS EASTERN NORTH DAKOTA  *****

CITY           SKY/WX    TMP DP  RH WIND       PRES   REMARKS
GRAND FORKS    PTSUNNY   58  57  97 W3        29.96R FOG
GRAND FORKS AF CLOUDY    61  59  94 W2        29.97F FOG
GRAND CITY NWS   N/A     61 N/A N/A W2          N/A
BUXTON         NOT AVBL
DEVILS LAKE    PTSUNNY   63  55  77 E6        29.96F
FARGO          SUNNY     62  59  90 CALM      29.96S FOG
WAHPETON ARPT  MOSUNNY   59  57  94 CALM      29.97S
$$

 *****  WEATHER ACROSS CENTRAL AND WESTERN NORTH DAKOTA  *****

CITY           SKY/WX    TMP DP  RH WIND       PRES   REMARKS
JAMESTOWN      CLOUDY    64  60  87 E6        29.95F FOG
BISMARCK       CLOUDY    67  62  84 S5        29.94F
MINOT          CLOUDY    64  61  90 E10       29.92F FOG
MINOT AFB      LGT RAIN  63  63 100 SE13      29.93S
GARRISON         N/A     68  63  84 NE6       29.96R
WILLISTON      FOG       65  62  90 N9        29.98R VSB 1
DICKINSON      CLOUDY    68  61  78 SE7       29.94S
HETTINGER      CLOUDY    65  60  84 SE9       29.97R
$$

 *****  OTHER OBSERVATIONS NORTHEAST NORTH DAKOTA  *****

CITY           SKY/WX    TMP DP  RH WIND       PRES   REMARKS
WALHALLA       FAIR      61  61 100 MISG      29.98R FOG
LANGDON        FAIR      61  61 100 CALM      29.99S
CAVALIER       FAIR      61  59  94 CALM      29.97S FOG
GRAFTON        FAIR      61  61 100 CALM      29.98R
CANDO          FAIR      59  59 100 E6        29.98F FOG
FORT TOTTEN    NOT AVBL
ROLLA          FAIR      59  59 100 E3        30.00S
RUGBY          NOT AVBL
 ***** THE ABOVE OBSERVATIONS ARE NON NWS ARE NOT QUALITY
        CONTROLLED AND MAY MIS-REPORT RAIN FOR SNOW...
$$

 *****  OTHER OBSERVATIONS SOUTHEAST NORTH DAKOTA *****

CITY           SKY/WX    TMP DP  RH WIND       PRES   REMARKS
COOPERSTOWN    NOT AVBL
VALLEY CITY    FAIR      61  61 100 E5        29.97F FOG
OAKES            N/A     64  64 100 NE8       29.95F
GWINNER        NOT AVBL
BUFFALO        NOT AVBL
WYNDMERE       NOT AVBL
 ***** THE ABOVE OBSERVATIONS ARE NON NWS ARE NOT QUALITY
       CONTROLLED AND MAY MIS-REPORT RAIN FOR SNOW...
$$

  *****  WEATHER ACROSS NORTHERN MINNESOTA  *****

CITY           SKY/WX    TMP DP  RH WIND       PRES   REMARKS
FLAG ISLAND    MOSUNNY   61  50  67 SE5       29.99R
WARROAD        MOSUNNY   61  55  82 SE5       30.00S
ROSEAU         SUNNY     61  55  82 SE5       29.99S
HALLOCK        SUNNY     63  59  88 CALM      29.96R
THF RVR FALLS  SUNNY     61  57  88 E9        29.98S
HALSTAD        NOT AVBL
FOSSTON        SUNNY     61  55  82 CALM      29.97F
BAUDETTE       MOSUNNY   58  53  84 E6        29.99S
WASKISH        MOSUNNY   57  54  88 E7        30.00R
CROOKSTON      SUNNY     63  59  88 SE8       29.97R
$$
  *****  WEATHER ACROSS CENTRAL AND WEST MINNESOTA  *****

CITY           SKY/WX    TMP DP  RH WIND       PRES   REMARKS
BEMIDJI        SUNNY     58  54  85 E7        29.98F
PARK RAPIDS    SUNNY     63  57  81 NE6       29.97S
WADENA         SUNNY     61  57  88 E5        29.96S
DETROIT LAKES  SUNNY     63  59  88 E3        29.98S
MOORHEAD       SUNNY     61  61 100 CALM      29.98R FOG
FERGUS FALLS   SUNNY     63  63 100 CALM      29.97R
ELBOW LAKE     FAIR      63  58  86 CALM      29.97R
MORRIS MN      SUNNY     63  61  94 CALM      29.96R
STAPLES        SUNNY     61  57  88 CALM      29.97S
WHEATON        MOSUNNY   61  61 100 CALM      29.98F FOG
$$
  *****  WEATHER ELSEWHERE ACROSS MINNESOTA  *****

CITY           SKY/WX    TMP DP  RH WIND       PRES   REMARKS
DULUTH         CLOUDY    56  53  90 E10       29.97R
INTRNTL FALLS  MOSUNNY   58  51  78 E7        30.00R
ELY            CLOUDY    54  46  76 NE6       29.99S
CLOQUET        CLOUDY    57  54  88 E6        29.98R
BRAINERD       SUNNY     61  57  87 NE6       29.97R
HIBBING        PTSUNNY   59  53  80 N6        29.98R
ALEXANDRIA     SUNNY     63  58  83 NE8       29.98R
SAINT CLOUD    SUNNY     63  59  87 N5        29.95R
MINNEAPOLIS    MOSUNNY   65  61  87 N6        29.92R
$$

  *****  WEATHER ACROSS SOUTH DAKOTA  *****

CITY           SKY/WX    TMP DP  RH WIND       PRES   REMARKS
SIOUX FALLS    CLOUDY    66  63  90 CALM      29.96R
BROOKINGS      CLOUDY    64  61  88 N3        29.98F
WATERTOWN      PTSUNNY   64  61  90 N5        29.97R FOG
HURON          CLOUDY    67  65  93 CALM      29.94S FOG
SISSETON         N/A     65  61  87 CALM      29.95F
ABERDEEN       CLOUDY    68  63  84 E8        29.94F
MITCHELL       CLOUDY    69  68  96 E7        29.93S FOG
PIERRE         CLOUDY    69  63  81 SE12      29.91R
MOBRIDGE       CLOUDY    68  67  96 E7        29.92R
RAPID CITY     PTSUNNY   71  60  68 NW7       29.95S
$$

  *****  SOME WEATHER IN NEARBY STATES *****

CITY           SKY/WX    TMP DP  RH WIND       PRES   REMARKS
GLASGOW MT     NOT AVBL
GREAT FALLS MT SUNNY     66  58  75 W6        30.01R
CHEYENNE WY    MOSUNNY   62  47  57 W10       30.22S
SCOTTSBLUFF NE MOSUNNY   64  56  75 NW6       30.07S
OMAHA NE       CLOUDY    70  64  81 N6        29.95R
DES MOINES IA  CLOUDY    69  62  78 NW9       29.91R HAZE
DAVENPORT IA   SUNNY     67  62  84 NW5       29.87R
CHICAGO IL     MOSUNNY   64  60  87 W7        29.81R
EAU CLAIRE WI  PTSUNNY   63  59  87 N6        29.91R
LA CROSSE WI   CLOUDY    62  60  93 N6        29.89R FOG
$$

  *****  SOME NATIONAL WEATHER *****

CITY           SKY/WX    TMP DP  RH WIND       PRES   REMARKS
LA GUARDIA NY  MOSUNNY   75  58  55 S7        29.97F
RALEIGH NC     MOSUNNY   78  64  61 S7        29.97S
ATLANTA GA     PTSUNNY   77  70  79 W7        30.02R
NEW ORLEANS LA PTSUNNY   81  74  79 SW8       30.07R
OKLAHOMA CITY  MOSUNNY   70  66  87 CALM      30.01F
ALBUQUERQUE NM PTSUNNY   71  49  45 NW5       30.26R
SALT LAKE CITY CLOUDY    80  54  40 W7        30.07R
LOS ANGELES CA PTCLDY    66  62  87 NW3       29.87F
BOISE ID       PTCLDY    74  56  53 SW3       30.00R
SEATTLE WA     FOG       59  57  93 SW7       30.11S VSB 1/2
$$

*** WEATHER ACROSS MANITOBA...SASKATCHEWAN AND ONTARIO ***
                ***ONTARIO***

CITY           SKY/WX    TMP DP  RH WIND       PRES   REMARKS
GERALDTON      PTSUNNY   48  41  76 NE9       30.02R
THUNDER BAY    MOSUNNY   54  39  58 NE7       29.99R
SIOUX LOOKOUT  MOSUNNY   55  50  82 SE3       30.03R
TORONTO        PTSUNNY   64  57  77 E7        29.85S
BIG TROUT LK   SUNNY     54  43  66 SW7       30.04S
PICKLE LAKE    MOSUNNY   50  43  76 E5        30.05R
DRYDEN         SUNNY     55  52  88 E3        30.02R
KENORA         MOSUNNY   57  52  82 SE6       30.02R
$$
                *** MANITOBA***

CITY           SKY/WX    TMP DP  RH WIND       PRES   REMARKS
BRANDON        CLOUDY    59  59 100 E3        30.00R
DAUPHIN        FOG       57  55  94 VRB2      30.00S VSB 1
ISLAND LAKE    MOSUNNY   57  46  67 S5        30.02
PILOT MOUND      N/A     59  59 100 S2          N/A
THE PAS        PTSUNNY   59  57  94 SE7       29.97F
THOMPSON       CLOUDY    54  50  87 CALM      29.99S
WINNIPEG       PTSUNNY   63  57  82 SE6       29.98S
LYNN LAKE      PTSUNNY   55  55 100 S3        29.94F
CHURCHILL      MOSUNNY   55  46  71 W6        29.92F
GILLAM         PTSUNNY   57  43  58 S12       30.00S
$$
                ***SASKATCHEWAN***

CITY           SKY/WX    TMP DP  RH WIND       PRES   REMARKS
ESTEVAN        LGT RAIN  63  63 100 N5        29.97R SMOKE
KINDERSLEY     LGT RAIN  61  55  82 E6        29.95S VSB 1
LLOYDMINSTER   LGT RAIN  61  59  94 NE3       29.98F
PRINCE ALBERT  SMOKE     61  61 100 NE3       29.93F VSB 1/2
REGINA         LGT RAIN  61  61 100 VRB2      29.98R VSB 5/8
YORKTON        PTSUNNY   63  61  94 SE5       29.98S FOG



USA.gov is the U.S. government's official web portal to all federal, state and local government web resources and services.